| time (UTC) | temp F | wind direction | speed MPH | gust MPH | rain 1hr in | rain 24hr in | rain mn in | humidity % | barometer mb |
| 20260510062057 | 68 | 219 | 1.0 | 2.0 | 0.01 | 0.71 | 0.02 | 93 | 1012.0 |
| 20260510061557 | 68 | 214 | 0.0 | 1.0 | 0.01 | 0.71 | 0.02 | 93 | 1011.8 |
| 20260510061058 | 68 | 214 | 0.0 | 1.0 | 0.02 | 0.71 | 0.02 | 93 | 1011.9 |
| 20260510060555 | 68 | 219 | 0.0 | 1.0 | 0.01 | 0.70 | 0.01 | 93 | 1012.2 |
| 20260510060055 | 68 | 184 | 0.0 | 1.0 | 0.01 | 0.70 | 0.01 | 93 | 1012.1 |
| 20260510055554 | 68 | 184 | 0.0 | 1.0 | 0.01 | 0.70 | 0.01 | 93 | 1012.1 |
| 20260510055057 | 68 | 184 | 0.0 | 1.0 | 0.01 | 0.70 | 0.01 | 93 | 1012.2 |
| 20260510054555 | 68 | 184 | 0.0 | 1.0 | 0.01 | 0.70 | 0.01 | 93 | 1012.2 |
| 20260510054054 | 68 | 184 | 0.0 | 2.0 | 0.01 | 0.70 | 0.01 | 93 | 1012.3 |
| 20260510053553 | 68 | 184 | 0.0 | 2.0 | 0.01 | 0.70 | 0.01 | 93 | 1012.2 |
| 20260510053052 | 68 | 184 | 0.0 | 2.0 | 0.01 | 0.70 | 0.01 | 93 | 1012.2 |
| 20260510052551 | 68 | 184 | 0.0 | 2.0 | 0.01 | 0.70 | 0.01 | 93 | 1012.4 |
| 20260510052054 | 68 | 184 | 0.0 | 1.0 | 0.01 | 0.70 | 0.01 | 93 | 1012.5 |
| 20260510051552 | 68 | 184 | 0.0 | 2.0 | 0.01 | 0.70 | 0.01 | 93 | 1012.5 |
| 20260510051052 | 68 | 184 | 0.0 | 2.0 | 0.00 | 0.69 | 0.00 | 93 | 1012.5 |
| 20260510050550 | 68 | 243 | 0.0 | 1.0 | 0.00 | 0.69 | 0.00 | 93 | 1012.5 |
| 20260510050056 | 68 | 246 | 0.0 | 0.0 | 0.00 | 0.69 | 0.00 | 93 | 1012.7 |
| 20260510045549 | 68 | 246 | 0.0 | 0.0 | 0.00 | 0.70 | 0.00 | 93 | 1012.7 |
| 20260510045050 | 68 | 246 | 0.0 | 0.0 | 0.00 | 0.70 | 0.00 | 93 | 1012.7 |
| 20260510044556 | 68 | 246 | 0.0 | 0.0 | 0.00 | 0.70 | 0.00 | 93 | 1012.8 |
| 20260510044049 | 68 | 246 | 0.0 | 1.0 | 0.00 | 0.70 | 0.00 | 93 | 1012.7 |
| 20260510043549 | 68 | 246 | 0.0 | 1.0 | 0.00 | 0.70 | 0.00 | 93 | 1012.7 |
| 20260510043103 | 68 | 246 | 0.0 | 0.0 | 0.00 | 0.70 | 0.00 | 93 | 1012.8 |
| 20260510042548 | 68 | 246 | 0.0 | 1.0 | 0.00 | 0.70 | 0.00 | 92 | 1012.9 |
| 20260510042048 | 68 | 246 | 0.0 | 1.0 | 0.00 | 0.70 | 0.00 | 92 | 1012.9 |
| 20260510041548 | 68 | 246 | 0.0 | 2.0 | 0.00 | 0.70 | 0.00 | 92 | 1012.8 |
| 20260510041048 | 68 | 246 | 0.0 | 2.0 | 0.00 | 0.70 | 0.00 | 92 | 1012.9 |
| 20260510040546 | 68 | 246 | 0.0 | 0.0 | 0.00 | 0.70 | 0.00 | 92 | 1012.7 |
| 20260510040055 | 68 | 246 | 0.0 | 1.0 | 0.00 | 0.70 | 0.00 | 92 | 1012.6 |
| 20260510035545 | 68 | 246 | 0.0 | 1.0 | 0.00 | 0.70 | 0.70 | 93 | 1012.6 |
| 20260510035045 | 68 | 246 | 0.0 | 0.0 | 0.00 | 0.70 | 0.70 | 92 | 1012.6 |
| 20260510034547 | 68 | 246 | 0.0 | 0.0 | 0.00 | 0.70 | 0.70 | 92 | 1012.7 |
| 20260510034045 | 68 | 246 | 0.0 | 0.0 | 0.00 | 0.70 | 0.70 | 92 | 1012.8 |
| 20260510033544 | 68 | 246 | 0.0 | 0.0 | 0.00 | 0.70 | 0.70 | 92 | 1012.7 |
| 20260510033058 | 68 | 246 | 0.0 | 0.0 | 0.00 | 0.70 | 0.70 | 92 | 1012.7 |
| 20260510032547 | 68 | 246 | 0.0 | 0.0 | 0.00 | 0.70 | 0.70 | 92 | 1012.7 |
| 20260510032145 | 68 | 246 | 0.0 | 0.0 | 0.00 | 0.70 | 0.70 | 93 | 1012.7 |
| 20260510031549 | 68 | 246 | 0.0 | 0.0 | 0.00 | 0.70 | 0.70 | 92 | 1012.6 |
| 20260510031045 | 68 | 246 | 0.0 | 0.0 | 0.00 | 0.70 | 0.70 | 93 | 1012.6 |
| 20260510030543 | 68 | 246 | 0.0 | 0.0 | 0.00 | 0.70 | 0.70 | 93 | 1012.5 |
| 20260510030046 | 68 | 246 | 0.0 | 0.0 | 0.00 | 0.70 | 0.70 | 93 | 1012.4 |
| 20260510025545 | 68 | 246 | 0.0 | 0.0 | 0.00 | 0.70 | 0.70 | 93 | 1012.5 |
| 20260510025042 | 68 | 246 | 0.0 | 0.0 | 0.00 | 0.70 | 0.70 | 93 | 1012.5 |
| 20260510024543 | 68 | 246 | 0.0 | 1.0 | 0.00 | 0.70 | 0.70 | 93 | 1012.4 |
| 20260510024042 | 68 | 246 | 0.0 | 1.0 | 0.00 | 0.70 | 0.70 | 93 | 1012.3 |
| 20260510023542 | 68 | 246 | 0.0 | 0.0 | 0.00 | 0.70 | 0.70 | 92 | 1012.1 |
| 20260510023042 | 68 | 246 | 0.0 | 0.0 | 0.00 | 0.70 | 0.70 | 93 | 1012.0 |
| 20260510022542 | 68 | 246 | 0.0 | 0.0 | 0.00 | 0.70 | 0.70 | 92 | 1012.0 |
| 20260510022042 | 68 | 246 | 0.0 | 0.0 | 0.00 | 0.70 | 0.70 | 92 | 1012.0 |
| 20260510021542 | 68 | 246 | 0.0 | 0.0 | 0.00 | 0.70 | 0.70 | 92 | 1012.0 |
| 20260510021041 | 68 | 246 | 0.0 | 1.0 | 0.01 | 0.70 | 0.70 | 92 | 1012.0 |
| 20260510020542 | 68 | 246 | 0.0 | 1.0 | 0.01 | 0.70 | 0.70 | 92 | 1012.0 |
| 20260510020046 | 68 | 246 | 0.0 | 0.0 | 0.01 | 0.70 | 0.70 | 92 | 1012.0 |
| 20260510015541 | 68 | 246 | 0.0 | 0.0 | 0.01 | 0.80 | 0.70 | 92 | 1012.1 |
| 20260510015040 | 68 | 246 | 0.0 | 1.0 | 0.01 | 0.80 | 0.70 | 92 | 1011.9 |
| 20260510014545 | 68 | 246 | 0.0 | 2.0 | 0.01 | 0.80 | 0.70 | 92 | 1011.9 |
| 20260510014040 | 68 | 246 | 0.0 | 2.0 | 0.01 | 0.80 | 0.70 | 92 | 1011.9 |
| 20260510013540 | 68 | 246 | 0.0 | 1.0 | 0.01 | 0.80 | 0.70 | 92 | 1012.0 |
| 20260510013040 | 69 | 246 | 0.0 | 1.0 | 0.01 | 0.80 | 0.70 | 92 | 1012.1 |
| 20260510012542 | 69 | 245 | 0.0 | 0.0 | 0.01 | 0.80 | 0.70 | 92 | 1011.9 |
| 20260510012040 | 69 | 245 | 0.0 | 1.0 | 0.02 | 0.80 | 0.70 | 92 | 1011.7 |
| 20260510011543 | 69 | 245 | 0.0 | 1.0 | 0.02 | 0.80 | 0.70 | 92 | 1011.6 |
| 20260510011039 | 69 | 246 | 0.0 | 0.0 | 0.01 | 0.79 | 0.69 | 92 | 1011.7 |
| 20260510010538 | 69 | 246 | 0.0 | 2.0 | 0.01 | 0.79 | 0.69 | 92 | 1011.7 |
| 20260510010039 | 69 | 244 | 1.0 | 2.0 | 0.01 | 0.79 | 0.69 | 92 | 1011.7 |
| 20260510005539 | 69 | 242 | 1.0 | 2.0 | 0.01 | 0.79 | 0.69 | 92 | 1011.6 |
| 20260510005139 | 69 | 247 | 0.0 | 2.0 | 0.01 | 0.79 | 0.69 | 92 | 1011.5 |
| 20260510004539 | 69 | 247 | 0.0 | 3.0 | 0.01 | 0.79 | 0.69 | 92 | 1011.4 |
| 20260510004038 | 69 | 239 | 1.0 | 3.0 | 0.01 | 0.79 | 0.69 | 92 | 1011.5 |
| 20260510003538 | 69 | 243 | 0.0 | 2.0 | 0.01 | 0.79 | 0.69 | 92 | 1011.4 |
| 20260510003039 | 69 | 209 | 0.0 | 2.0 | 0.01 | 0.79 | 0.69 | 92 | 1011.5 |
| 20260510002541 | 69 | 206 | 0.0 | 0.0 | 0.01 | 0.79 | 0.69 | 92 | 1011.5 |
| 20260510002038 | 69 | 206 | 0.0 | 1.0 | 0.00 | 0.78 | 0.68 | 92 | 1011.6 |
| 20260510001541 | 69 | 206 | 0.0 | 1.0 | 0.01 | 0.78 | 0.68 | 92 | 1011.6 |
| 20260510001037 | 69 | 206 | 0.0 | 1.0 | 0.01 | 0.78 | 0.68 | 92 | 1011.6 |
| 20260510000540 | 69 | 344 | 0.0 | 0.0 | 0.01 | 0.78 | 0.68 | 92 | 1011.6 |
| 20260510000057 | 69 | 344 | 0.0 | 1.0 | 0.03 | 0.78 | 0.68 | 92 | 1011.4 |
| 20260509235538 | 69 | 344 | 0.0 | 1.0 | 0.04 | 0.78 | 0.68 | 92 | 1011.4 |
| 20260509235036 | 69 | 255 | 0.0 | 2.0 | 0.05 | 0.78 | 0.68 | 92 | 1011.3 |
| 20260509234549 | 69 | 255 | 0.0 | 3.0 | 0.05 | 0.78 | 0.68 | 92 | 1011.3 |
| 20260509234036 | 69 | 254 | 1.0 | 3.0 | 0.05 | 0.78 | 0.68 | 92 | 1011.2 |
| 20260509233537 | 69 | 279 | 1.0 | 3.0 | 0.05 | 0.78 | 0.68 | 92 | 1011.4 |
| 20260509233035 | 69 | 250 | 1.0 | 3.0 | 0.05 | 0.78 | 0.68 | 92 | 1011.4 |
| 20260509232535 | 69 | 249 | 1.0 | 3.0 | 0.05 | 0.78 | 0.68 | 92 | 1011.5 |
| 20260509232035 | 69 | 227 | 0.0 | 3.0 | 0.05 | 0.78 | 0.68 | 92 | 1011.4 |
| 20260509231534 | 69 | 249 | 1.0 | 3.0 | 0.04 | 0.77 | 0.67 | 92 | 1011.6 |
| 20260509231035 | 69 | 276 | 0.0 | 3.0 | 0.04 | 0.77 | 0.67 | 92 | 1011.5 |
| 20260509230537 | 69 | 243 | 0.0 | 3.0 | 0.04 | 0.76 | 0.66 | 92 | 1011.5 |
| 20260509230037 | 69 | 242 | 1.0 | 3.0 | 0.03 | 0.75 | 0.65 | 92 | 1011.5 |
| 20260509225535 | 69 | 253 | 1.0 | 3.0 | 0.02 | 0.74 | 0.64 | 92 | 1011.5 |
| 20260509225035 | 69 | 245 | 0.0 | 3.0 | 0.01 | 0.73 | 0.63 | 92 | 1011.4 |
| 20260509224534 | 69 | 240 | 2.0 | 3.0 | 0.01 | 0.73 | 0.63 | 92 | 1011.5 |
| 20260509224034 | 70 | 253 | 2.0 | 3.0 | 0.01 | 0.73 | 0.63 | 92 | 1011.5 |
| 20260509223533 | 70 | 248 | 0.0 | 3.0 | 0.01 | 0.73 | 0.63 | 92 | 1011.3 |
| 20260509223033 | 70 | 246 | 1.0 | 3.0 | 0.01 | 0.73 | 0.63 | 92 | 1011.4 |
| 20260509222533 | 70 | 262 | 0.0 | 1.0 | 0.01 | 0.73 | 0.63 | 92 | 1011.3 |
| 20260509222036 | 70 | 262 | 0.0 | 1.0 | 0.02 | 0.73 | 0.63 | 92 | 1011.3 |
| 20260509221533 | 70 | 262 | 0.0 | 1.0 | 0.02 | 0.73 | 0.63 | 92 | 1011.1 |
| 20260509221033 | 70 | 262 | 0.0 | 2.0 | 0.02 | 0.73 | 0.63 | 92 | 1011.1 |
| 20260509220532 | 70 | 262 | 0.0 | 2.0 | 0.01 | 0.72 | 0.62 | 92 | 1011.1 |
| 20260509220032 | 70 | 262 | 0.0 | 2.0 | 0.01 | 0.72 | 0.62 | 92 | 1011.3 |
| 20260509215532 | 70 | 262 | 0.0 | 1.0 | 0.01 | 0.72 | 0.62 | 92 | 1011.2 |
| 20260509215032 | 70 | 263 | 0.0 | 2.0 | 0.02 | 0.72 | 0.62 | 92 | 1011.2 |
| 20260509214534 | 70 | 263 | 0.0 | 2.0 | 0.02 | 0.72 | 0.62 | 92 | 1011.1 |
| 20260509214031 | 70 | 197 | 0.0 | 1.0 | 0.02 | 0.72 | 0.62 | 92 | 1010.9 |
| 20260509213533 | 70 | 96 | 0.0 | 1.0 | 0.02 | 0.72 | 0.62 | 92 | 1010.9 |
| 20260509213035 | 70 | 96 | 0.0 | 2.0 | 0.03 | 0.72 | 0.62 | 92 | 1010.7 |
| 20260509212531 | 70 | 96 | 0.0 | 2.0 | 0.03 | 0.72 | 0.62 | 92 | 1010.7 |
| 20260509212031 | 70 | 24 | 0.0 | 1.0 | 0.02 | 0.71 | 0.61 | 92 | 1010.8 |
| 20260509212001 | 70 | 24 | 0.0 | 1.0 | 0.02 | 0.71 | 0.61 | 92 | 1010.8 |
| 20260509211532 | 70 | 24 | 0.0 | 2.0 | 0.03 | 0.71 | 0.61 | 92 | 1010.9 |
| 20260509211030 | 70 | 241 | 0.0 | 2.0 | 0.03 | 0.71 | 0.61 | 92 | 1010.9 |
| 20260509210532 | 70 | 321 | 0.0 | 2.0 | 0.03 | 0.71 | 0.61 | 92 | 1010.8 |
| 20260509210038 | 70 | 165 | 0.0 | 2.0 | 0.03 | 0.71 | 0.61 | 92 | 1010.8 |
| 20260509205529 | 70 | 161 | 0.0 | 2.0 | 0.04 | 0.71 | 0.61 | 92 | 1010.8 |
| 20260509205029 | 70 | 9 | 0.0 | 2.0 | 0.03 | 0.70 | 0.60 | 92 | 1010.8 |
| 20260509204535 | 70 | 9 | 1.0 | 2.0 | 0.04 | 0.70 | 0.60 | 92 | 1010.8 |
| 20260509204030 | 70 | 124 | 0.0 | 2.0 | 0.04 | 0.70 | 0.60 | 92 | 1011.1 |
| 20260509203529 | 70 | 38 | 0.0 | 2.0 | 0.04 | 0.70 | 0.60 | 92 | 1011.2 |
| 20260509203029 | 69 | 18 | 0.0 | 1.0 | 0.03 | 0.69 | 0.59 | 92 | 1011.2 |
| 20260509202528 | 69 | 18 | 0.0 | 1.0 | 0.03 | 0.69 | 0.59 | 92 | 1011.4 |
| 20260509202029 | 69 | 222 | 0.0 | 1.0 | 0.03 | 0.69 | 0.59 | 92 | 1011.4 |
| 20260509201531 | 69 | 165 | 0.0 | 1.0 | 0.03 | 0.68 | 0.57 | 92 | 1011.6 |
| 20260509201030 | 69 | 168 | 0.0 | 1.0 | 0.03 | 0.68 | 0.57 | 92 | 1011.7 |
| 20260509200532 | 69 | 155 | 0.0 | 3.0 | 0.03 | 0.68 | 0.57 | 92 | 1011.8 |
| 20260509200028 | 69 | 156 | 0.0 | 3.0 | 0.03 | 0.68 | 0.57 | 92 | 1011.9 |
| 20260509195531 | 69 | 70 | 0.0 | 1.0 | 0.02 | 0.67 | 0.56 | 92 | 1011.9 |
| 20260509195027 | 69 | 9 | 0.0 | 1.0 | 0.01 | 0.66 | 0.56 | 92 | 1012.0 |
| 20260509194534 | 69 | 111 | 0.0 | 1.0 | 0.02 | 0.66 | 0.56 | 91 | 1012.0 |
| 20260509194027 | 69 | 136 | 0.0 | 1.0 | 0.02 | 0.66 | 0.56 | 91 | 1011.9 |
| 20260509193529 | 69 | 329 | 0.0 | 1.0 | 0.02 | 0.66 | 0.56 | 92 | 1011.9 |
| 20260509193029 | 70 | 335 | 0.0 | 1.0 | 0.02 | 0.66 | 0.56 | 92 | 1011.8 |
| 20260509192526 | 70 | 335 | 0.0 | 1.0 | 0.03 | 0.66 | 0.56 | 91 | 1011.8 |
| 20260509192028 | 70 | 190 | 0.0 | 2.0 | 0.03 | 0.66 | 0.56 | 92 | 1011.8 |
| 20260509191528 | 70 | 110 | 0.0 | 2.0 | 0.04 | 0.65 | 0.55 | 92 | 1011.6 |
| 20260509191026 | 69 | 120 | 0.0 | 2.0 | 0.10 | 0.65 | 0.55 | 91 | 1011.7 |
| 20260509190525 | 69 | 302 | 0.0 | 2.0 | 0.22 | 0.65 | 0.55 | 91 | 1011.9 |
| 20260509190025 | 69 | 59 | 0.0 | 4.0 | 0.31 | 0.65 | 0.55 | 91 | 1011.9 |
| 20260509185525 | 69 | 51 | 1.0 | 4.0 | 0.39 | 0.65 | 0.55 | 91 | 1011.9 |
| 20260509185025 | 69 | 355 | 1.0 | 4.0 | 0.49 | 0.65 | 0.55 | 91 | 1011.9 |
| 20260509184538 | 69 | 65 | 1.0 | 4.0 | 0.53 | 0.64 | 0.54 | 91 | 1011.8 |
| 20260509184024 | 69 | 324 | 0.0 | 2.0 | 0.53 | 0.64 | 0.54 | 91 | 1011.8 |
| 20260509183524 | 69 | 282 | 0.0 | 2.0 | 0.53 | 0.64 | 0.54 | 90 | 1011.9 |
| 20260509183026 | 69 | 5 | 0.0 | 2.0 | 0.53 | 0.64 | 0.54 | 90 | 1011.9 |
| 20260509182525 | 69 | 21 | 0.0 | 5.0 | 0.52 | 0.63 | 0.53 | 89 | 1011.8 |
| 20260509182024 | 69 | 355 | 0.0 | 5.0 | 0.52 | 0.63 | 0.53 | 88 | 1011.9 |
| 20260509181524 | 70 | 340 | 1.0 | 3.0 | 0.49 | 0.60 | 0.50 | 87 | 1011.9 |
| 20260509181024 | 73 | 338 | 1.0 | 3.0 | 0.44 | 0.55 | 0.45 | 88 | 1011.8 |
| 20260509180523 | 73 | 295 | 0.0 | 3.0 | 0.30 | 0.41 | 0.31 | 88 | 1011.9 |
| 20260509180023 | 73 | 282 | 0.0 | 3.0 | 0.22 | 0.33 | 0.23 | 87 | 1011.7 |
| 20260509175523 | 74 | 269 | 1.0 | 3.0 | 0.14 | 0.25 | 0.15 | 86 | 1011.7 |
| 20260509175022 | 75 | 313 | 0.0 | 4.0 | 0.04 | 0.15 | 0.05 | 84 | 1011.5 |
| 20260509174522 | 76 | 276 | 0.0 | 9.0 | 0.00 | 0.11 | 0.01 | 82 | 1011.5 |
| 20260509174022 | 76 | 277 | 2.0 | 10.0 | 0.00 | 0.11 | 0.01 | 81 | 1011.6 |
| 20260509173527 | 77 | 244 | 5.0 | 10.0 | 0.00 | 0.11 | 0.01 | 80 | 1011.5 |
| 20260509173021 | 77 | 267 | 1.0 | 7.0 | 0.00 | 0.11 | 0.01 | 79 | 1011.5 |
| 20260509172521 | 78 | 277 | 3.0 | 8.0 | 0.00 | 0.11 | 0.01 | 78 | 1011.6 |
| 20260509172021 | 78 | 265 | 4.0 | 8.0 | 0.00 | 0.11 | 0.01 | 79 | 1011.5 |
| 20260509171525 | 77 | 250 | 2.0 | 6.0 | 0.00 | 0.11 | 0.01 | 79 | 1011.5 |
| 20260509171021 | 77 | 219 | 4.0 | 7.0 | 0.00 | 0.11 | 0.01 | 78 | 1011.4 |
| 20260509170520 | 77 | 246 | 1.0 | 8.0 | 0.00 | 0.11 | 0.01 | 78 | 1011.5 |
| 20260509170020 | 78 | 242 | 4.0 | 8.0 | 0.00 | 0.11 | 0.01 | 79 | 1011.7 |
| 20260509165523 | 78 | 224 | 2.0 | 9.0 | 0.00 | 0.11 | 0.01 | 78 | 1011.7 |
| 20260509165021 | 78 | 263 | 4.0 | 10.0 | 0.00 | 0.11 | 0.01 | 77 | 1011.8 |
| 20260509164520 | 79 | 245 | 3.0 | 10.0 | 0.00 | 0.11 | 0.01 | 76 | 1011.8 |
| 20260509164019 | 80 | 267 | 2.0 | 7.0 | 0.00 | 0.11 | 0.01 | 75 | 1011.7 |
| 20260509163524 | 79 | 270 | 2.0 | 6.0 | 0.00 | 0.11 | 0.01 | 77 | 1011.7 |
| 20260509163022 | 79 | 13 | 1.0 | 5.0 | 0.00 | 0.11 | 0.01 | 78 | 1011.6 |
| 20260509162517 | 78 | 235 | 1.0 | 5.0 | 0.00 | 0.11 | 0.01 | 78 | 1011.6 |
| 20260509162016 | 78 | 133 | 1.0 | 6.0 | 0.00 | 0.11 | 0.01 | 79 | 1011.6 |
| 20260509161514 | 77 | 155 | 2.0 | 6.0 | 0.00 | 0.11 | 0.01 | 79 | 1011.7 |
| 20260509161013 | 76 | 238 | 1.0 | 3.0 | 0.00 | 0.11 | 0.01 | 80 | 1011.8 |
| 20260509160512 | 75 | 142 | 1.0 | 3.0 | 0.00 | 0.11 | 0.01 | 80 | 1011.8 |
| 20260509160013 | 75 | 269 | 0.0 | 3.0 | 0.00 | 0.11 | 0.01 | 82 | 1011.8 |
| 20260509155510 | 75 | 179 | 1.0 | 3.0 | 0.00 | 0.11 | 0.01 | 82 | 1011.7 |
| 20260509155009 | 74 | 134 | 1.0 | 3.0 | 0.00 | 0.11 | 0.01 | 82 | 1011.8 |
| 20260509154512 | 74 | 242 | 0.0 | 3.0 | 0.00 | 0.11 | 0.01 | 82 | 1011.7 |
| 20260509154109 | 74 | 182 | 1.0 | 3.0 | 0.00 | 0.11 | 0.01 | 82 | 1011.7 |
| 20260509153509 | 74 | 117 | 0.0 | 3.0 | 0.00 | 0.11 | 0.01 | 82 | 1011.7 |
| 20260509153022 | 74 | 245 | 1.0 | 3.0 | 0.00 | 0.11 | 0.01 | 82 | 1011.7 |
| 20260509152508 | 74 | 277 | 1.0 | 4.0 | 0.00 | 0.11 | 0.01 | 83 | 1011.6 |
| 20260509152017 | 74 | 44 | 1.0 | 4.0 | 0.00 | 0.11 | 0.01 | 83 | 1011.5 |
| 20260509151508 | 74 | 34 | 1.0 | 4.0 | 0.00 | 0.11 | 0.01 | 83 | 1011.6 |
| 20260509151007 | 74 | 50 | 1.0 | 7.0 | 0.00 | 0.11 | 0.01 | 84 | 1011.9 |
| 20260509150506 | 74 | 37 | 2.0 | 7.0 | 0.00 | 0.11 | 0.01 | 83 | 1011.9 |
| 20260509150005 | 73 | 309 | 0.0 | 4.0 | 0.00 | 0.11 | 0.01 | 85 | 1012.0 |
| 20260509145504 | 72 | 63 | 0.0 | 3.0 | 0.00 | 0.11 | 0.01 | 88 | 1012.0 |
| 20260509145003 | 71 | 113 | 1.0 | 3.0 | 0.00 | 0.11 | 0.01 | 87 | 1012.2 |
| 20260509144507 | 71 | 54 | 0.0 | 3.0 | 0.00 | 0.11 | 0.01 | 88 | 1012.4 |
| 20260509144003 | 71 | 54 | 1.0 | 3.0 | 0.00 | 0.11 | 0.01 | 88 | 1012.6 |
| 20260509143501 | 70 | 317 | 0.0 | 3.0 | 0.00 | 0.11 | 0.01 | 88 | 1012.5 |
| 20260509143133 | 70 | 317 | 0.0 | 3.0 | 0.00 | 0.11 | 0.01 | 88 | 1012.5 |
| 20260509142559 | 70 | 235 | 0.0 | 2.0 | 0.00 | 0.11 | 0.01 | 88 | 1012.7 |
| 20260509142103 | 70 | 229 | 0.0 | 1.0 | 0.00 | 0.11 | 0.01 | 88 | 1012.6 |
| 20260509141600 | 70 | 234 | 0.0 | 1.0 | 0.00 | 0.11 | 0.01 | 88 | 1012.6 |
| 20260509141100 | 70 | 316 | 0.0 | 1.0 | 0.00 | 0.11 | 0.01 | 88 | 1012.6 |
| 20260509140558 | 70 | 223 | 0.0 | 1.0 | 0.00 | 0.11 | 0.01 | 89 | 1012.6 |
| 20260509140106 | 70 | 255 | 0.0 | 1.0 | 0.00 | 0.11 | 0.01 | 89 | 1012.6 |
| 20260509135600 | 70 | 255 | 0.0 | 1.0 | 0.00 | 0.11 | 0.01 | 89 | 1012.5 |
| 20260509135102 | 70 | 209 | 0.0 | 2.0 | 0.00 | 0.11 | 0.01 | 89 | 1012.3 |
| 20260509134611 | 70 | 74 | 0.0 | 2.0 | 0.00 | 0.11 | 0.01 | 90 | 1012.2 |
| 20260509134056 | 69 | 59 | 0.0 | 2.0 | 0.00 | 0.11 | 0.01 | 90 | 1012.0 |
| 20260509133555 | 69 | 59 | 0.0 | 2.0 | 0.00 | 0.11 | 0.01 | 91 | 1012.0 |
| 20260509133055 | 69 | 306 | 0.0 | 2.0 | 0.00 | 0.11 | 0.01 | 91 | 1012.1 |
| 20260509132555 | 69 | 49 | 0.0 | 1.0 | 0.00 | 0.11 | 0.01 | 91 | 1012.1 |
| 20260509132058 | 69 | 274 | 0.0 | 1.0 | 0.00 | 0.11 | 0.01 | 92 | 1012.1 |
| 20260509131552 | 69 | 229 | 0.0 | 1.0 | 0.00 | 0.11 | 0.01 | 92 | 1012.1 |
| 20260509131052 | 69 | 229 | 0.0 | 1.0 | 0.00 | 0.11 | 0.01 | 92 | 1012.1 |
| 20260509130551 | 68 | 360 | 0.0 | 2.0 | 0.00 | 0.11 | 0.01 | 92 | 1012.0 |
| 20260509130057 | 68 | 19 | 1.0 | 2.0 | 0.00 | 0.11 | 0.01 | 92 | 1012.0 |
| 20260509125549 | 68 | 19 | 0.0 | 2.0 | 0.00 | 0.11 | 0.01 | 92 | 1011.8 |
| 20260509125048 | 68 | 275 | 0.0 | 2.0 | 0.00 | 0.11 | 0.01 | 92 | 1011.7 |
| 20260509124549 | 68 | 112 | 0.0 | 1.0 | 0.00 | 0.11 | 0.01 | 92 | 1011.8 |
| 20260509124048 | 68 | 129 | 0.0 | 1.0 | 0.00 | 0.11 | 0.01 | 92 | 1011.8 |
| 20260509123550 | 68 | 304 | 0.0 | 1.0 | 0.00 | 0.11 | 0.01 | 92 | 1011.6 |
| 20260509123101 | 67 | 58 | 0.0 | 2.0 | 0.00 | 0.11 | 0.01 | 92 | 1011.7 |
| 20260509122546 | 67 | 186 | 0.0 | 2.0 | 0.00 | 0.11 | 0.01 | 92 | 1011.6 |
| 20260509122046 | 68 | 5 | 0.0 | 1.0 | 0.00 | 0.11 | 0.01 | 92 | 1011.4 |
| 20260509121602 | 67 | 242 | 0.0 | 2.0 | 0.00 | 0.11 | 0.01 | 92 | 1011.1 |
| 20260509121049 | 67 | 132 | 0.0 | 2.0 | 0.00 | 0.11 | 0.01 | 92 | 1011.1 |
| 20260509120543 | 67 | 87 | 0.0 | 2.0 | 0.00 | 0.11 | 0.01 | 92 | 1011.2 |
| 20260509120043 | 67 | 87 | 0.0 | 0.0 | 0.00 | 0.11 | 0.01 | 92 | 1011.4 |
| 20260509115544 | 67 | 100 | 0.0 | 1.0 | 0.00 | 0.11 | 0.01 | 92 | 1011.4 |
| 20260509115042 | 67 | 19 | 0.0 | 1.0 | 0.00 | 0.11 | 0.01 | 92 | 1011.5 |
| 20260509114542 | 67 | 273 | 0.0 | 1.0 | 0.00 | 0.11 | 0.01 | 92 | 1011.6 |
| 20260509114044 | 66 | 273 | 0.0 | 2.0 | 0.00 | 0.11 | 0.01 | 92 | 1011.7 |
| 20260509113543 | 66 | 277 | 0.0 | 2.0 | 0.00 | 0.11 | 0.01 | 92 | 1011.5 |
| 20260509113041 | 66 | 277 | 0.0 | 2.0 | 0.00 | 0.11 | 0.01 | 92 | 1011.4 |
| 20260509113017 | 66 | 277 | 0.0 | 1.0 | 0.00 | 0.11 | 0.01 | 92 | 1011.4 |
| 20260509112539 | 66 | 316 | 0.0 | 1.0 | 0.00 | 0.11 | 0.01 | 92 | 1011.3 |
| 20260509112038 | 66 | 316 | 0.0 | 1.0 | 0.00 | 0.11 | 0.01 | 92 | 1011.1 |
| 20260509111554 | 66 | 316 | 0.0 | 1.0 | 0.00 | 0.11 | 0.01 | 92 | 1011.2 |
| 20260509111036 | 66 | 248 | 0.0 | 1.0 | 0.00 | 0.11 | 0.01 | 92 | 1011.0 |
| 20260509110534 | 66 | 282 | 0.0 | 0.0 | 0.00 | 0.11 | 0.01 | 92 | 1011.0 |
| 20260509110035 | 66 | 234 | 0.0 | 1.0 | 0.00 | 0.11 | 0.01 | 92 | 1011.1 |
| 20260509105534 | 66 | 221 | 0.0 | 1.0 | 0.00 | 0.11 | 0.01 | 92 | 1010.9 |
| 20260509105034 | 66 | 355 | 0.0 | 1.0 | 0.00 | 0.11 | 0.01 | 92 | 1010.9 |
| 20260509104541 | 66 | 165 | 0.0 | 1.0 | 0.00 | 0.11 | 0.01 | 92 | 1010.8 |
| 20260509104033 | 66 | 165 | 0.0 | 1.0 | 0.00 | 0.11 | 0.01 | 92 | 1010.7 |
| 20260509103532 | 66 | 165 | 0.0 | 1.0 | 0.00 | 0.11 | 0.01 | 92 | 1010.5 |
| 20260509103035 | 66 | 165 | 0.0 | 1.0 | 0.00 | 0.11 | 0.01 | 92 | 1010.4 |
| 20260509102533 | 66 | 5 | 0.0 | 0.0 | 0.00 | 0.11 | 0.01 | 92 | 1010.2 |
| 20260509102032 | 66 | 5 | 0.0 | 1.0 | 0.00 | 0.11 | 0.01 | 92 | 1010.0 |
| 20260509101551 | 66 | 5 | 0.0 | 1.0 | 0.00 | 0.11 | 0.01 | 92 | 1010.1 |
| 20260509101034 | 66 | 5 | 0.0 | 1.0 | 0.00 | 0.11 | 0.01 | 92 | 1010.1 |
| 20260509100536 | 66 | 5 | 0.0 | 1.0 | 0.00 | 0.11 | 0.01 | 92 | 1010.2 |
| 20260509100032 | 66 | 5 | 0.0 | 1.0 | 0.00 | 0.11 | 0.01 | 92 | 1010.1 |
| 20260509095531 | 66 | 5 | 0.0 | 1.0 | 0.00 | 0.11 | 0.01 | 92 | 1010.3 |
| 20260509095034 | 66 | 5 | 0.0 | 1.0 | 0.00 | 0.11 | 0.01 | 92 | 1010.3 |
| 20260509094537 | 66 | 5 | 0.0 | 3.0 | 0.00 | 0.11 | 0.01 | 92 | 1010.3 |
| 20260509094029 | 66 | 360 | 1.0 | 4.0 | 0.00 | 0.11 | 0.01 | 92 | 1010.3 |
| 20260509093529 | 66 | 33 | 1.0 | 6.0 | 0.00 | 0.11 | 0.01 | 92 | 1010.2 |
| 20260509093030 | 66 | 281 | 1.0 | 6.0 | 0.00 | 0.11 | 0.01 | 92 | 1010.2 |
| 20260509092529 | 66 | 248 | 0.0 | 3.0 | 0.00 | 0.11 | 0.01 | 92 | 1010.4 |
| 20260509092031 | 66 | 5 | 1.0 | 3.0 | 0.00 | 0.11 | 0.01 | 91 | 1010.4 |
| 20260509091537 | 66 | 350 | 1.0 | 3.0 | 0.00 | 0.11 | 0.01 | 92 | 1010.3 |
| 20260509091131 | 65 | 321 | 1.0 | 3.0 | 0.00 | 0.11 | 0.01 | 92 | 1010.0 |
| 20260509090527 | 65 | 313 | 1.0 | 2.0 | 0.00 | 0.11 | 0.01 | 92 | 1009.2 |
| 20260509090029 | 65 | 288 | 0.0 | 7.0 | 0.00 | 0.11 | 0.01 | 91 | 1008.9 |
| 20260509085527 | 66 | 245 | 3.0 | 8.0 | 0.00 | 0.11 | 0.01 | 91 | 1009.2 |
| 20260509085026 | 66 | 257 | 3.0 | 7.0 | 0.00 | 0.11 | 0.01 | 91 | 1009.2 |
| 20260509084526 | 66 | 247 | 1.0 | 7.0 | 0.00 | 0.11 | 0.01 | 91 | 1008.9 |
| 20260509084028 | 66 | 261 | 2.0 | 6.0 | 0.00 | 0.11 | 0.01 | 91 | 1009.1 |
| 20260509083525 | 66 | 281 | 1.0 | 5.0 | 0.00 | 0.11 | 0.01 | 91 | 1009.2 |
| 20260509083024 | 66 | 252 | 2.0 | 5.0 | 0.00 | 0.11 | 0.01 | 91 | 1009.2 |
| 20260509082526 | 66 | 252 | 3.0 | 5.0 | 0.00 | 0.11 | 0.01 | 91 | 1009.2 |
| 20260509082024 | 66 | 254 | 0.0 | 3.0 | 0.00 | 0.11 | 0.01 | 91 | 1009.1 |
| 20260509081527 | 66 | 250 | 1.0 | 7.0 | 0.00 | 0.11 | 0.01 | 91 | 1009.3 |
| 20260509081024 | 66 | 248 | 2.0 | 7.0 | 0.00 | 0.11 | 0.01 | 91 | 1009.6 |
| 20260509080522 | 66 | 249 | 1.0 | 6.0 | 0.00 | 0.11 | 0.01 | 91 | 1009.3 |
| 20260509080026 | 66 | 250 | 1.0 | 4.0 | 0.00 | 0.11 | 0.01 | 91 | 1009.3 |
| 20260509075522 | 66 | 294 | 0.0 | 4.0 | 0.00 | 0.11 | 0.01 | 91 | 1009.0 |
| 20260509075021 | 66 | 210 | 1.0 | 4.0 | 0.00 | 0.11 | 0.01 | 91 | 1009.2 |
| 20260509074531 | 66 | 145 | 0.0 | 3.0 | 0.00 | 0.11 | 0.01 | 91 | 1009.7 |
| 20260509074018 | 66 | 255 | 1.0 | 4.0 | 0.00 | 0.11 | 0.01 | 91 | 1010.4 |
| 20260509073517 | 66 | 257 | 1.0 | 2.0 | 0.00 | 0.11 | 0.01 | 91 | 1010.5 |
| 20260509073016 | 66 | 257 | 0.0 | 1.0 | 0.00 | 0.11 | 0.01 | 91 | 1010.7 |
| 20260509072516 | 66 | 258 | 0.0 | 1.0 | 0.00 | 0.11 | 0.01 | 91 | 1010.9 |
| 20260509072016 | 66 | 258 | 0.0 | 1.0 | 0.00 | 0.11 | 0.01 | 91 | 1010.9 |
| 20260509071515 | 67 | 258 | 0.0 | 1.0 | 0.00 | 0.11 | 0.01 | 91 | 1010.9 |
| 20260509071015 | 67 | 257 | 0.0 | 2.0 | 0.00 | 0.11 | 0.01 | 91 | 1010.9 |
| 20260509070514 | 67 | 257 | 0.0 | 3.0 | 0.00 | 0.11 | 0.01 | 91 | 1010.9 |
| 20260509070015 | 67 | 251 | 1.0 | 3.0 | 0.00 | 0.11 | 0.01 | 91 | 1010.9 |
| 20260509065513 | 67 | 247 | 0.0 | 1.0 | 0.00 | 0.11 | 0.01 | 91 | 1010.9 |
| 20260509065016 | 67 | 246 | 0.0 | 1.0 | 0.00 | 0.11 | 0.01 | 91 | 1011.0 |
| 20260509064514 | 67 | 246 | 0.0 | 1.0 | 0.00 | 0.11 | 0.01 | 91 | 1011.1 |
| 20260509064013 | 67 | 246 | 0.0 | 1.0 | 0.00 | 0.11 | 0.01 | 91 | 1011.2 |
| 20260509063511 | 67 | 246 | 0.0 | 1.0 | 0.00 | 0.11 | 0.01 | 91 | 1011.4 |
| 20260509063019 | 67 | 246 | 0.0 | 1.0 | 0.00 | 0.11 | 0.01 | 90 | 1011.4 |